Weather History for KMLP - February, 2013

Change the Weather History Date:

Tuesday, February 19, 2013

  Actual Average (K3TH) Record (K3TH)
Temperature  
Mean Temperature 22 °F -  
Max Temperature 24 °F 37 °F 51 °F (1998)
Min Temperature 19 °F 26 °F 21 °F (2001)
Degree Days  
Heating Degree Days 44    
Moisture  
Dew Point 21 °F    
Average Humidity 92    
Maximum Humidity 100    
Minimum Humidity 81    
Precipitation  
Precipitation 0.00 in - - ()
Sea Level Pressure  
Sea Level Pressure 29.64 in    
Wind  
Wind Speed 4 mph (SE)    
Max Wind Speed 7 mph    
Max Gust Speed -    
Visibility 2 miles    
Events Fog , Snow    
Averages and records for this station are not official NWS values.
T = Trace of Precipitation, MM = Missing Value Source: NWS Daily Summary

Daily Weather History Graph

Daily Weather History Graph

Search for Another Location

Airport or City:

Trip Planner

Search our weather history database for the weather conditions in past years. The results will help you decide how hot, cold, wet, or windy it might be!

Date:

Astronomy

Feb. 19, 2013 Rise Set
Actual Time 6:40 AM PST 5:13 PM PST
Civil Twilight 6:09 AM PST 5:44 PM PST
Nautical Twilight 5:33 AM PST 6:20 PM PST
Astronomical Twilight 4:58 AM PST 6:55 PM PST
Moon 11:35 AM PST (2/19) 2:29 AM PST (2/19)
Length of Visible Light 11h 35m
Length of Day
10h 32m
Waxing Gibbous, 68% of the Moon is Illuminated
Feb 19
Waxing Gibbous
Feb 25
Full
Mar 4
Last Quarter
Mar 11
New
Mar 19
First Quarter

Hourly Weather History & Observations

Time (PST) Temp. Windchill Dew Point Humidity Pressure Visibility Wind Dir Wind Speed Gust Speed Precip Events Conditions
12:53 AM 19.9 °F 12.1 °F 18.0 °F 92% 29.77 in 10.0 mi South 5.8 mph - N/A   Overcast
1:53 AM 19.9 °F 12.1 °F 17.1 °F 89% 29.75 in 10.0 mi South 5.8 mph - N/A   Mostly Cloudy
2:53 AM 19.9 °F 12.1 °F 16.0 °F 85% 29.74 in 10.0 mi SSE 5.8 mph - N/A   Mostly Cloudy
3:53 AM 21.0 °F 13.4 °F 16.0 °F 81% 29.72 in 10.0 mi SE 5.8 mph - N/A   Overcast
4:53 AM 19.9 °F 11.1 °F 17.1 °F 89% 29.73 in 6.0 mi SE 6.9 mph - 0.00 in Snow Light Snow
5:53 AM 19.9 °F 11.1 °F 18.0 °F 92% 29.71 in 7.0 mi SE 6.9 mph - 0.00 in   Overcast
6:11 AM 21.2 °F 13.6 °F 17.6 °F 86% 29.58 in 2.5 mi SE 5.8 mph - 0.00 in Snow Light Snow
6:22 AM 19.4 °F 11.5 °F 17.6 °F 93% 29.58 in 1.2 mi SE 5.8 mph - 0.00 in Snow Light Snow
6:34 AM 21.2 °F 14.9 °F 19.4 °F 93% 29.58 in 1.0 mi SE 4.6 mph - 0.00 in Snow Light Snow
6:53 AM 21.0 °F 12.4 °F 19.0 °F 92% 29.71 in 1.0 mi ESE 6.9 mph - 0.00 in Snow Light Snow
7:05 AM 21.2 °F 12.6 °F 19.4 °F 93% 29.58 in 0.8 mi ESE 6.9 mph - 0.00 in Snow Light Snow
7:18 AM 21.2 °F 14.9 °F 19.4 °F 93% 29.57 in 1.0 mi ESE 4.6 mph - 0.00 in Snow Light Snow
7:34 AM 19.4 °F 11.5 °F 19.4 °F 100% 29.57 in 2.0 mi ESE 5.8 mph - 0.00 in Snow Light Snow
7:43 AM 21.2 °F 14.9 °F 17.6 °F 86% 29.57 in 5.0 mi SE 4.6 mph - 0.00 in Snow Light Snow
7:53 AM 19.9 °F 13.4 °F 18.0 °F 92% 29.72 in - Variable 4.6 mph - 0.00 in Snow Light Snow
8:05 AM 19.4 °F 12.8 °F 19.4 °F 100% 29.58 in 1.8 mi Variable 4.6 mph - 0.00 in Snow Light Snow
8:12 AM 21.2 °F 14.9 °F 19.4 °F 93% 29.58 in 0.8 mi Variable 4.6 mph - 0.00 in Snow Light Snow
8:28 AM 21.2 °F 13.6 °F 19.4 °F 93% 29.58 in 0.5 mi SE 5.8 mph - 0.00 in Fog , Snow Snow
8:50 AM 21.2 °F 14.9 °F 19.4 °F 93% 29.58 in 0.8 mi Variable 4.6 mph - 0.00 in Snow Light Snow
8:53 AM 21.0 °F 16.2 °F 19.0 °F 92% 29.72 in 0.8 mi Variable 3.5 mph - 0.00 in Snow Light Snow
9:18 AM 21.2 °F 13.6 °F 19.4 °F 93% 29.56 in 1.2 mi Variable 5.8 mph - 0.00 in Snow Light Snow
9:28 AM 21.2 °F 13.6 °F 21.2 °F 100% 29.56 in 2.0 mi Variable 5.8 mph - 0.00 in Snow Light Snow
9:39 AM 23.0 °F 15.8 °F 21.2 °F 93% 29.56 in 5.0 mi Variable 5.8 mph - 0.00 in Snow Light Snow
9:49 AM 21.2 °F 16.4 °F 21.2 °F 100% 29.56 in 7.0 mi SE 3.5 mph - 0.00 in   Overcast
10:02 AM 21.2 °F 13.6 °F 21.2 °F 100% 29.56 in 2.5 mi SE 5.8 mph - N/A   Overcast
10:18 AM 23.0 °F 17.0 °F 21.2 °F 93% 29.56 in 4.0 mi Variable 4.6 mph - 0.00 in Snow Light Snow
10:53 AM 24.1 °F 19.7 °F 23.0 °F 96% 29.69 in 4.0 mi Variable 3.5 mph - 0.00 in   Overcast
10:56 AM 24.8 °F - 23.0 °F 93% 29.56 in 1.8 mi Calm Calm - 0.00 in Snow Light Snow
11:01 AM 23.0 °F 18.4 °F 23.0 °F 100% 29.56 in 0.8 mi Variable 3.5 mph - 0.00 in Snow Light Snow
11:14 AM 23.0 °F 17.0 °F 23.0 °F 100% 29.56 in 1.2 mi Variable 4.6 mph - 0.00 in Snow Light Snow
11:24 AM 24.8 °F 20.5 °F 23.0 °F 93% 29.57 in 2.0 mi Variable 3.5 mph - 0.00 in Snow Light Snow
11:32 AM 24.8 °F 20.5 °F 23.0 °F 93% 29.57 in 5.0 mi Variable 3.5 mph - 0.00 in Snow Light Snow
11:49 AM 24.8 °F - 21.2 °F 86% 29.56 in 5.0 mi Calm Calm - 0.00 in Snow Light Snow
11:53 AM 24.1 °F - 23.0 °F 96% 29.70 in 4.0 mi Calm Calm - 0.00 in Snow Light Snow
11:58 AM 24.8 °F - 23.0 °F 93% 29.56 in 2.5 mi Calm Calm - 0.00 in Snow Light Snow
12:06 PM 24.8 °F 20.5 °F 23.0 °F 93% 29.56 in 2.5 mi Variable 3.5 mph - 0.00 in Snow Light Snow
12:36 PM 23.0 °F - 21.2 °F 93% 29.57 in 1.5 mi Calm Calm - 0.00 in Snow Light Snow
12:51 PM 23.0 °F - 21.2 °F 93% 29.57 in 2.0 mi Calm Calm - 0.00 in Snow Light Snow
12:53 PM 23.0 °F 18.4 °F 21.9 °F 96% 29.70 in 2.0 mi Variable 3.5 mph - 0.00 in Snow Light Snow
12:59 PM 23.0 °F - 21.2 °F 93% 29.57 in 2.0 mi Calm Calm - 0.00 in Snow Light Snow
1:23 PM 24.8 °F - 21.2 °F 86% 29.57 in 1.2 mi Calm Calm - 0.00 in Snow Light Snow
1:36 PM 23.0 °F 17.0 °F 21.2 °F 93% 29.57 in 2.0 mi Variable 4.6 mph - 0.00 in Snow Light Snow
1:53 PM 24.1 °F 17.0 °F 23.0 °F 96% 29.71 in 6.0 mi Variable 5.8 mph - 0.00 in Snow Light Snow
2:00 PM 23.0 °F 18.4 °F 21.2 °F 93% 29.57 in 1.8 mi Variable 3.5 mph - 0.00 in Snow Light Snow
2:09 PM 23.0 °F 17.0 °F 21.2 °F 93% 29.58 in 1.2 mi Variable 4.6 mph - 0.00 in Snow Light Snow
2:49 PM 23.0 °F 18.4 °F 21.2 °F 93% 29.59 in 0.8 mi SW 3.5 mph - 0.00 in Snow Light Snow
2:53 PM 23.0 °F - 21.9 °F 96% 29.72 in 0.8 mi Calm Calm - 0.00 in Snow Light Snow
3:09 PM 23.0 °F 18.4 °F 21.2 °F 93% 29.59 in 1.5 mi Variable 3.5 mph - 0.00 in Snow Light Snow
3:15 PM 23.0 °F - 21.2 °F 93% 29.59 in 3.0 mi Calm Calm - 0.00 in Snow Light Snow
3:32 PM 23.0 °F 18.4 °F 21.2 °F 93% 29.59 in 2.5 mi SW 3.5 mph - 0.00 in Snow Light Snow
4:53 PM 23.0 °F - 21.9 °F 96% 29.74 in 5.0 mi Calm Calm - 0.00 in   Overcast
4:57 PM 23.0 °F - 21.2 °F 93% 29.61 in 1.5 mi Calm Calm - N/A   Overcast
4:59 PM 23.0 °F - 21.2 °F 93% 29.61 in 0.8 mi Calm Calm - N/A   Overcast
5:08 PM 23.0 °F - 21.2 °F 93% 29.61 in 0.2 mi Calm Calm - N/A Fog Light Freezing Fog
5:25 PM 23.0 °F - 21.2 °F 93% 29.61 in 1.0 mi Calm Calm - 0.00 in   Mist
5:37 PM 21.2 °F - 21.2 °F 100% 29.62 in 2.0 mi Calm Calm - 0.00 in   Overcast
5:40 PM 21.2 °F - 21.2 °F 100% 29.62 in 1.2 mi Calm Calm - 0.00 in   Overcast
5:49 PM 23.0 °F - 21.2 °F 93% 29.62 in 0.8 mi Calm Calm - 0.00 in   Mist
5:53 PM 23.0 °F - 21.9 °F 96% 29.76 in 0.8 mi Calm Calm - 0.00 in   Mist
5:58 PM 23.0 °F - 21.2 °F 93% 29.62 in 0.2 mi Calm Calm - 0.00 in Fog , Snow Light Snow
6:53 PM 21.9 °F 17.2 °F 21.9 °F 100% 29.77 in 0.2 mi Variable 3.5 mph - 0.00 in Fog Light Freezing Fog
7:04 PM 21.2 °F 16.4 °F 21.2 °F 100% 29.63 in 0.5 mi Variable 3.5 mph - N/A Fog Light Freezing Fog
7:39 PM 23.0 °F 18.4 °F 21.2 °F 93% 29.64 in 1.0 mi Variable 3.5 mph - N/A   Overcast
7:42 PM 23.0 °F 18.4 °F 21.2 °F 93% 29.64 in 0.8 mi Variable 3.5 mph - N/A   Mist
7:49 PM 23.0 °F 17.0 °F 21.2 °F 93% 29.64 in 0.2 mi NNW 4.6 mph - N/A Fog Light Freezing Fog
7:53 PM 23.0 °F 17.0 °F 21.0 °F 92% 29.78 in 0.2 mi NNW 4.6 mph - N/A Fog Light Freezing Fog
8:29 PM 24.8 °F - 21.2 °F 86% 29.65 in 0.5 mi Calm Calm - N/A Fog Light Freezing Fog
8:36 PM 24.8 °F - 21.2 °F 86% 29.65 in 0.2 mi Calm Calm - N/A Fog Light Freezing Fog
8:53 PM 24.1 °F - 21.9 °F 91% 29.78 in 0.2 mi Calm Calm - 0.00 in Fog , Snow Snow
8:57 PM 24.8 °F 20.5 °F 21.2 °F 86% 29.66 in 0.5 mi Variable 3.5 mph - 0.00 in Fog , Snow Snow
9:23 PM 24.8 °F - 21.2 °F 86% 29.66 in - Calm Calm - 0.00 in Snow Light Snow
9:53 PM 24.1 °F 19.7 °F 21.0 °F 88% 29.79 in 0.2 mi Variable 3.5 mph - 0.00 in Fog , Snow Light Snow
10:05 PM 24.8 °F 19.1 °F 21.2 °F 86% 29.67 in 0.5 mi NW 4.6 mph - 0.00 in Fog Light Freezing Fog
10:15 PM 23.0 °F 17.0 °F 19.4 °F 86% 29.67 in 0.8 mi Variable 4.6 mph - 0.00 in Snow Light Snow
10:22 PM 23.0 °F 17.0 °F 19.4 °F 86% 29.67 in 0.5 mi Variable 4.6 mph - 0.00 in Fog , Snow Light Snow
10:51 PM 23.0 °F 18.4 °F 19.4 °F 86% 29.68 in 0.2 mi Variable 3.5 mph - 0.00 in Fog Light Freezing Fog
10:53 PM 23.0 °F 18.4 °F 19.9 °F 88% 29.80 in 0.2 mi Variable 3.5 mph - 0.00 in Fog Light Freezing Fog
11:01 PM 23.0 °F 18.4 °F 19.4 °F 86% 29.68 in 0.5 mi Variable 3.5 mph - N/A Fog Light Freezing Fog
11:53 PM 23.0 °F - 19.9 °F 88% 29.81 in 0.8 mi Calm Calm - N/A   Mist